Location: Baumgarten
(49.0970°N, 12.7493°E)
Time: 01:15:13
(UTC+00:00)

Cosmos 2237 - Visible Passes

Search period start: 24 October 2020 00:00
Search period end: 03 November 2020 00:00
Orbit: 849 x 853 km, 70.8° (Epoch: 23 October)

Date Brightness Start Highest point End Pass type
(mag) Time Alt. Az. Time Alt. Az. Time Alt. Az.
24 Oct 6.5 04:23:39 10° N 04:27:44 20° NE 04:31:49 10° E visible
25 Oct 6.5 04:11:20 10° N 04:15:26 20° NE 04:19:31 10° E visible
26 Oct 6.5 03:59:02 10° N 04:03:09 20° NE 04:07:13 10° E visible
27 Oct 6.5 03:46:44 10° N 03:50:50 20° NE 03:54:54 10° E visible
28 Oct 6.5 03:34:26 10° N 03:38:31 20° NE 03:42:36 10° E visible
29 Oct 6.5 03:22:07 10° N 03:26:13 20° NE 03:30:18 10° E visible
29 Oct 4.4 05:05:44 10° NNW 05:11:28 77° ENE 05:17:10 10° SSE visible
30 Oct 6.5 03:09:50 10° N 03:13:54 20° NE 03:17:59 10° E visible
30 Oct 4.4 04:53:26 10° NNW 04:59:10 77° ENE 05:04:52 10° SSE visible
31 Oct 6.5 02:57:31 10° N 03:01:36 20° NE 03:05:40 10° E visible
31 Oct 4.4 04:41:07 10° NNW 04:46:51 77° ENE 04:52:33 10° SSE visible
01 Nov 6.5 02:45:13 10° N 02:49:17 20° NE 02:53:22 10° E visible
01 Nov 4.4 04:28:49 10° NNW 04:34:33 77° ENE 04:40:15 10° SSE visible
02 Nov 6.5 02:33:19 11° N 02:37:00 20° NE 02:41:04 10° E visible
02 Nov 4.3 04:16:31 10° NNW 04:22:14 77° ENE 04:27:56 10° SSE visible
